STARLINK-11728, 64323

Orbit data source: Space-Track

STARLINK-11728, 64323 is a payload satellite owned by SpaceX/Seattle (US) in LEO that was launched on Tue, 10 Jun 2025 UTC via an FALCON 9 launch vehicle from the Air Force Eastern Test Range (AFETR). Payload-class satellites include a variety of spacecraft equipped with specific instruments for various scientific and technological missions. These include communications satellites like Starlink; space stations such as the ISS; scientific satellites like the Hubble; Earth observation satellites from companies like Planet Labs, Umbra, and HawkEye 360; GPS; miniature CubeSats for education and research; and military/defense satellites.

Loading next visibility...
Identifier
64323, 2025-124G
Orbit
LEO
Country
Flag of USUS
Related business
Manufacturer
SpaceX/Seattle
Mission
Operational Commercial Communications
Bus & Motor
STARLINK V2MD, Unknown motor
Mass
960 kg wet, ~910 kg dry
Launch date (UTC)
2025-06-10 (11 months ago)
Launch vehicle
FALCON 9
Launch site
Air Force Eastern Test Range (AFETR)
Object type
Payload
Rocket body
Debris
Shape & HBR
Box + 2 Pan, 18.1 m
Radar Cross Section
36.964 m², Large (>1 m²)

Expand to show TLE details & history
Last TLE update: 8 hours ago

TLE from 8 hours ago
0 STARLINK-11728
1 64323U 25124G   26119.90612484  .00239057  00000-0  18087-2 0  9997
2 64323  42.9998  80.1159 0001285 285.1994  74.8732 15.70902066 50898
Epoch: 2026-04-29T21:44Z
TLE epoch observation values (Epoch: 2026-04-29T21:44:49.186Z)
Latitude
0.00003°
Longitude
-103.94938°
Altitude
355.863 km
Speed
7.698 km/s
True Right ascension
05h 20m 27s
True Declination
0° 00' 00"
Sunlit
Object was in daylight at epoch
Visualization orbit readout
Latitude
Unknown
Longitude
Unknown
Altitude
Unknown
Speed
Unknown
Apparent Right ascension
Unknown
Apparent Declination
Unknown
Sunlit
N/A
Visualization observer readout
Local Sidereal Time
13:38:51
Azimuth
Unknown
Elevation
Unknown
Doppler factor
Unknown
Orbital elements
Apogee altitude
359.165 km
Perigee altitude
357.434 km
Semi-major axis
6,736.436 km
Eccentricity
0.00013
Inclination
42.9998°
RAAN
80.1159°
Arg. of periapsis
285.1994°
True anomaly
74.88742°
Mean anomaly
74.8732°
Eccentric anomaly
74.88031°
Mean motion
3.92553 °/min
Orbital period
91.71 mins
BSTAR
0.0018087
Loading maneuver chart data...
Computing Atmospheric mass density...
Loading historical data...
Loading historical data...
Loading historical data...
Loading historical data...
Loading historical data...
Loading historical data...
Loading historical data...

Documentation

Showing up to 5 results
|